Regional Weather Roundup
Issued by NWS Boston, MA

Current Version | Previous Version | Text Only | Print | Product List | Glossary On
Versions: 1 2 3 4 5 6 7 8 9 10 11 12 13 14 15 16 17 18 19 20 21 22 23 24 25 26 27 28 29 30 31 32 33 34 35 36 37 38 39 40 41 42 43 44 45 46 47 48 49 50
000 ASUS41 KBOX 131210 RWRBOX REGIONAL WEATHER ROUNDUP NATIONAL WEATHER SERVICE TAUNTON MA 700 AM EST SAT FEB 13 2016 NOTE: "FAIR" INDICATES FEW OR NO CLOUDS BELOW 12,000 FEET WITH NO SIGNIFICANT WEATHER AND/OR OBSTRUCTIONS TO VISIBILITY. THE FOLLOWING OBSERVATION LOCATIONS DO NOT REPORT PRESENT WEATHER...PROVINCETOWN... SMITHFIELD...BLOCK ISLAND...KEENE...AND OXFORD. MAZALL-131300- EASTERN MASSACHUSETTS CITY SKY/WX TMP DP RH WIND PRES REMARKS BOSTON MOCLDY 19 8 62 W14 29.81S WCI 6 6HR MIN TEMP: 19; 6HR MAX TEMP: 22; BEVERLY CLOUDY 16 6 65 W5 29.80R WCI 9 LAWRENCE CLOUDY 14 6 70 W3 29.82R BEDFORD CLOUDY 13 7 77 W6 29.80R WCI 4 BLUE HILL N/A 13 7 77 W10 29.75S WCI 0 NORWOOD MOCLDY 16 8 71 CALM 29.81S MARSHFIELD PTCLDY 19 16 86 W5 29.82S WCI 13 PLYMOUTH MOCLDY 12 10 92 W5 29.80S WCI 4 TAUNTON CLOUDY 17 12 80 W3 29.80S NEW BEDFORD CLOUDY 16 12 84 W6 29.80S WCI 7 $$ MAZALL-131300- CAPE COD AND THE ISLANDS CITY SKY/WX TMP DP RH WIND PRES REMARKS FALMOUTH MOCLDY 14 12 92 W5 29.79S WCI 6 HYANNIS MOCLDY 18 12 77 W6 29.78S WCI 10 CHATHAM CLOUDY 20 16 84 VRB3 29.78F PROVINCETOWN CLOUDY 22 15 75 NW12 29.78F WCI 10 NANTUCKET CLOUDY 24 12 60 NW12 29.78F WCI 13 MARTHAS VNYRD CLOUDY 20 13 74 NW5 29.80S WCI 13 $$ MAZALL-131300- CENTRAL AND WESTERN MASSACHUSETTS CITY SKY/WX TMP DP RH WIND PRES REMARKS WORCESTER MOCLDY 11 5 77 W12 29.74R WCI -3 6HR MIN TEMP: 10; 6HR MAX TEMP: 13; FITCHBURG CLOUDY 16 5 62 NW7 29.80R WCI 6 ORANGE PTCLDY 4 0 83 CALM 29.80R SPRINGFIELD PTCLDY 9 5 85 CALM 29.83R WESTFIELD PTCLDY 6 2 83 W3 29.84R NORTH ADAMS PTCLDY 14 6 70 W7 29.83S WCI 4 PITTSFIELD MOCLDY 13 4 67 NW8 29.78R WCI 2 $$ RIZALL-131300- RHODE ISLAND CITY SKY/WX TMP DP RH WIND PRES REMARKS PROVIDENCE CLOUDY 19 8 62 W8 29.83R WCI 9 6HR MIN TEMP: 18; 6HR MAX TEMP: 20; NEWPORT CLOUDY 19 10 68 NW9 29.82R WCI 8 BLOCK ISLAND CLOUDY 19 16 86 NW13G21 29.82R WCI 7 SMITHFIELD CLEAR 16 7 67 W8 29.78R WCI 5 WESTERLY LGT SNOW 18 14 84 NW3 29.85S FOG $$ CTZALL-131300- CONNECTICUT CITY SKY/WX TMP DP RH WIND PRES REMARKS BRADLEY INTL PTCLDY 11 6 81 CALM 29.85R 6HR MIN TEMP: 10; 6HR MAX TEMP: 17; 6HR PCP: TRACE; HARTFORD PTCLDY 18 8 65 CALM 29.88R BRIDGEPORT CLEAR 19 11 70 W9 29.88R WCI 8 DANBURY CLEAR 13 6 74 W5 29.87R WCI 5 GROTON CLOUDY 18 14 84 NW7 29.86R WCI 9 NEW HAVEN CLOUDY 19 11 70 NW7 29.88R WCI 10 CHESTER FAIR 18 12 79 NW5 29.84R WCI 11 MERIDEN CLEAR 11 6 81 CALM 29.87R WILLIMANTIC PTCLDY 13 8 81 CALM 29.84R OXFORD PTCLDY 14 1 57 N5 29.83R WCI 6 $$ MEZ002-015-021-024-NHZ003-005-008-011-012-014-VTZ005-008-131300- NORTHERN NEW ENGLAND CITY SKY/WX TMP DP RH WIND PRES REMARKS PORTLAND ME MOCLDY 2 -2 83 CALM 29.79S 6HR MIN TEMP: 1; 6HR MAX TEMP: 11; BANGOR ME CLOUDY 2 -5 72 N7 29.80F WCI -11 CONCORD NH CLOUDY 5 1 83 CALM 29.79S MANCHESTER NH CLOUDY 10 6 84 CALM 29.78S NASHUA NH CLOUDY 9 3 78 CALM 29.81R PORTSMOUTH NH CLOUDY 11 7 81 W6 29.79R WCI 2 JAFFREY NH CLOUDY 14 4 64 NW8 29.74R WCI 3 KEENE NH CLEAR 5 0 78 CALM 29.80R BURLINGTON VT MOCLDY 7 -3 64 N12 29.91R WCI -8 MT. WASHINGTON BLWGSNOW -9 -9 100 W29 N/A VSB 0 WCI -38 $$ NYZ052-076-131300- EASTERN NEW YORK CITY SKY/WX TMP DP RH WIND PRES REMARKS ALBANY PTCLDY 15 4 61 W13 29.91R WCI 1 6HR MIN TEMP: 12; 6HR MAX TEMP: 19; NEW YORK CITY PTCLDY 23 11 60 NW18G28 29.92R WCI 9 6HR MIN TEMP: 22; 6HR MAX TEMP: 23; $$ ANZALL-131300- MARINE OBSERVATIONS STATION/POSITION TIME TEMP WIND PRES VSBY WAVE AIR SEA DIR/SP/G HT/PER (UTC) (F) (DEG/KT/KT) (MB) (MI) (FT/S) BOSTON BUOY 1150 23 40 290/ 10/ 16 1008.9S 1/ 3 BUZZARDS BAY 1100 310/ 11/ 13 1010.1F NANTUCKET SOUND 1150 24 37 310/ 16/ 19 1008.5S 2/ 3 MASS BAY-STELLWA 1104 22 41 290/ 12/ 14 N/A 1 7/8 1/ 3 ISLE OF SHOALS 1200 19 280/ 15/ 17 1008.1S S OF BLOCK IS NOT AVBL $$ ......................KEY......................... SKY/WX - SKY CONDITION/PRESENT WEATHER TMP - TEMPERATURE IN FAHRENHEIT DWPT - DEWPOINT IN FAHRENHEIT RH - RELATIVE HUMIDITY IN PERCENT WIND - DIRECTION AND SPEED IN MPH PRES - MEAN SEA LEVEL PRESSURE IN INCHES OF HG WCI - WIND CHILL INDEX VSB - VISIBILITY IN MILES HX - HEAT INDEX TC - TEMPERATURE IN CELSIUS VRB - VARIABLE WIND DIRECTION N/A - NOT AVAILABLE

USA.gov is the U.S. government's official web portal to all federal, state and local government web resources and services.